DW0326 Weather Reports


Display with metric or nautical units.
time (UTC)temp
F
wind
direction
speed
MPH
gust
MPH
rain 1hr
in
rain 24hr
in
rain mn
in
humidity
%
barometer
mb
20260903183354 82 295 0.0 5.0 0.09 0.09 0.09 89 1010.0
20260903181554 84 297 1.0 8.0 0.00 0.00 0.00 83 1009.7
20260903180654 84 314 1.0 9.0 0.00 0.00 0.00 81 1009.7
20260903174854 86 329 2.0 12.0 0.00 0.00 0.00 75 1010.2
20260903172154 90 0 0.0 0.0 0.00 0.00 0.00 79 1009.7
20260903170354 90 0 0.0 0.0 0.00 0.00 0.00 80 1010.1
20260903165454 90 0 0.0 0.0 0.00 0.00 0.00 82 1010.1
20260903164554 89 0 0.0 0.0 0.00 0.00 0.00 81 1010.2
20260903163654 88 0 0.0 0.0 0.00 0.00 0.00 83 1010.2
20260903162754 87 0 0.0 0.0 0.00 0.00 0.00 86 1010.2
20260903161854 86 0 0.0 0.0 0.00 0.00 0.00 85 1010.2
20260903160053 85 0 0.0 0.0 0.00 0.00 0.00 90 1010.1
20260903155153 84 0 0.0 0.0 0.00 0.00 0.00 90 1010.1
20260903154253 84 0 0.0 0.0 0.00 0.00 0.00 91 1010.1
20260903153354 84 0 0.0 0.0 0.00 0.00 0.00 93 1010.1
20260903152454 83 0 0.0 0.0 0.00 0.00 0.00 94 1010.1
20260903151554 83 0 0.0 0.0 0.00 0.00 0.00 94 1010.1
20260903145753 83 0 0.0 0.0 0.00 0.00 0.00 93 1010.1
20260903144854 83 0 0.0 0.0 0.00 0.00 0.00 93 1010.5
20260903143954 83 0 0.0 0.0 0.00 0.00 0.00 93 1010.5
20260903143054 83 0 0.0 0.0 0.00 0.00 0.00 92 1010.4
20260903142154 83 0 0.0 0.0 0.00 0.00 0.00 91 1010.4
20260903141254 83 0 0.0 0.0 0.00 0.00 0.00 91 1010.3
20260903140353 83 0 0.0 0.0 0.00 0.00 0.00 91 1010.3
20260903135454 82 0 0.0 0.0 0.00 0.00 0.00 91 1010.3
20260903132754 82 0 0.0 0.0 0.00 0.00 0.00 91 1010.2
20260903130954 82 0 0.0 0.0 0.00 0.00 0.00 92 1010.0
20260903130053 82 0 0.0 0.0 0.00 0.00 0.00 92 1010.0
20260903125154 82 0 0.0 0.0 0.00 0.00 0.00 92 1010.0
20260903124254 82 0 0.0 0.0 0.00 0.00 0.00 92 1009.6
20260903123354 82 201 0.0 6.0 0.00 0.00 0.00 92 1009.4
20260903122453 82 0 0.0 0.0 0.00 0.00 0.00 93 1009.4
20260903121553 82 0 0.0 0.0 0.00 0.00 0.00 92 1009.2
20260903120654 82 0 0.0 0.0 0.00 0.00 0.00 92 1009.2
20260903115753 82 0 0.0 0.0 0.00 0.00 0.00 92 1009.2
20260903113954 82 0 0.0 0.0 0.00 0.00 0.00 92 1009.1
20260903111254 83 0 0.0 0.0 0.00 0.00 0.00 90 1009.2
20260903110353 83 206 1.0 6.0 0.00 0.00 0.00 89 1009.1
20260903105454 83 196 1.0 11.0 0.00 0.00 0.00 89 1009.1
20260903104554 83 193 1.0 11.0 0.00 0.00 0.00 89 1009.1
20260903103654 83 195 1.0 10.0 0.00 0.00 0.00 88 1009.1
20260903102754 83 194 1.0 6.0 0.00 0.00 0.00 89 1009.0
20260903101853 84 181 1.0 8.0 0.00 0.00 0.00 89 1009.0
20260903100953 84 205 1.0 7.0 0.00 0.00 0.00 89 1009.0
20260903100053 84 213 1.0 7.0 0.00 0.00 0.00 89 1008.9
20260903095154 84 197 1.0 7.0 0.00 0.00 0.00 89 1008.9
20260903094253 84 175 1.0 7.0 0.00 0.00 0.00 89 1008.9
20260903093353 84 170 1.0 7.0 0.00 0.00 0.00 88 1009.0
20260903092454 84 166 0.0 6.0 0.00 0.00 0.00 88 1009.0
20260903091553 84 153 0.0 4.0 0.00 0.00 0.00 88 1008.9
20260903090654 84 183 1.0 9.0 0.00 0.00 0.00 88 1008.9
20260903085754 84 194 1.0 7.0 0.00 0.00 0.00 88 1008.9
20260903084853 84 213 0.0 5.0 0.00 0.00 0.00 88 1008.7
20260903083953 84 177 1.0 7.0 0.00 0.00 0.00 88 1008.7
20260903083054 84 194 1.0 10.0 0.00 0.00 0.00 88 1008.8
20260903082153 84 195 1.0 5.0 0.00 0.00 0.00 88 1008.8
20260903080353 84 200 1.0 6.0 0.00 0.00 0.00 88 1008.7
20260903075454 84 198 0.0 6.0 0.00 0.00 0.00 88 1008.7
20260903074553 84 203 2.0 9.0 0.00 0.00 0.00 88 1008.7
20260903071854 84 186 1.0 7.0 0.00 0.00 0.00 87 1009.0
20260903070054 84 187 1.0 7.0 0.00 0.00 0.00 87 1009.2
20260903065153 84 191 1.0 7.0 0.00 0.00 0.00 87 1009.2
20260903064254 84 183 1.0 9.0 0.00 0.00 0.00 87 1009.2
20260903061553 84 209 0.0 5.0 0.00 0.00 0.00 87 1009.6
20260903060653 84 182 1.0 8.0 0.00 0.00 0.00 88 1009.6
20260903054854 84 0 0.0 0.0 0.00 0.00 0.00 88 1010.1
20260903053953 84 188 1.0 9.0 0.00 0.00 0.00 88 1010.1
20260903053054 84 0 0.0 0.0 0.00 0.00 0.00 88 1010.0
20260903052153 85 201 1.0 7.0 0.00 0.00 0.00 88 1010.0
20260903044554 85 0 0.0 0.0 0.00 0.00 0.00 87 1010.1
20260903043653 85 166 1.0 10.0 0.00 0.00 0.00 87 1010.1
20260903041853 85 167 0.0 6.0 0.00 0.00 0.00 87 1010.1
20260903040953 85 168 0.0 6.0 0.00 0.00 0.00 87 1010.1
20260903035154 85 126 0.0 6.0 0.00 0.00 0.00 87 1010.0
20260903034254 85 160 0.0 7.0 0.00 0.00 0.00 87 1009.9
20260903032453 86 176 1.0 9.0 0.00 0.00 0.00 87 1009.7
20260903031553 86 185 1.0 11.0 0.00 0.00 0.00 87 1009.6
20260903030653 86 186 1.0 9.0 0.00 0.00 0.00 87 1009.6
20260903025753 86 157 2.0 9.0 0.00 0.00 0.00 86 1009.4
20260903024853 86 195 0.0 7.0 0.00 0.00 0.00 86 1009.5
20260903023953 86 163 0.0 7.0 0.00 0.00 0.00 86 1009.5
20260903023054 86 207 0.0 5.0 0.00 0.00 0.00 86 1009.0
20260903021254 86 172 1.0 7.0 0.00 0.00 0.00 84 1008.7
20260903020354 87 162 1.0 6.0 0.00 0.00 0.00 83 1008.6
20260903014553 87 198 3.0 13.0 0.00 0.00 0.00 80 1008.6
20260903013654 87 184 4.0 18.0 0.00 0.00 0.00 79 1008.6
20260903012754 88 179 5.0 13.0 0.00 0.00 0.00 78 1008.5
20260903010953 88 171 4.0 16.0 0.00 0.00 0.00 75 1008.0
20260903010053 89 179 7.0 19.0 0.00 0.00 0.00 73 1007.9
20260903005153 89 182 4.0 19.0 0.00 0.00 0.00 71 1007.9
20260903004254 89 181 6.0 14.0 0.00 0.00 0.00 69 1007.9
20260903003353 90 184 6.0 20.0 0.00 0.00 0.00 68 1007.7
20260903002453 90 182 5.0 16.0 0.00 0.00 0.00 66 1007.7
20260903001553 90 179 5.0 16.0 0.00 0.00 0.00 66 1007.4
20260903000653 91 178 6.0 18.0 0.00 0.00 0.00 65 1007.4
20260902234853 91 183 5.0 17.0 0.00 0.00 0.00 66 1007.1
20260902233953 92 183 6.0 17.0 0.00 0.00 0.00 65 1007.1
20260902232153 93 175 4.0 13.0 0.00 0.00 0.00 65 1007.1
20260902231253 93 181 4.0 14.0 0.00 0.00 0.00 66 1007.0
20260902230353 93 183 3.0 13.0 0.00 0.00 0.00 65 1007.0
20260902225453 94 179 3.0 13.0 0.00 0.00 0.00 65 1007.0
20260902224554 94 191 5.0 18.0 0.00 0.00 0.00 64 1007.1
20260902223653 94 193 2.0 17.0 0.00 0.00 0.00 66 1007.1
20260902222753 94 192 3.0 16.0 0.00 0.00 0.00 65 1007.1
20260902221853 94 177 2.0 10.0 0.00 0.00 0.00 65 1007.1
20260902220954 94 184 3.0 14.0 0.00 0.00 0.00 65 1007.1
20260902220053 95 181 2.0 11.0 0.00 0.00 0.00 64 1007.2
20260902215153 95 176 2.0 11.0 0.00 0.00 0.00 63 1007.2
20260902214253 95 186 3.0 14.0 0.00 0.00 0.00 63 1007.4
20260902213353 95 182 1.0 10.0 0.00 0.00 0.00 64 1007.4
20260902212453 95 194 2.0 11.0 0.00 0.00 0.00 63 1007.4
20260902211553 96 194 2.0 7.0 0.00 0.00 0.00 63 1007.5
20260902210653 96 200 2.0 14.0 0.00 0.00 0.00 62 1007.5
20260902205753 97 197 3.0 13.0 0.00 0.00 0.00 63 1007.6
20260902204853 96 186 1.0 12.0 0.00 0.00 0.00 65 1007.9
20260902203953 96 184 2.0 11.0 0.00 0.00 0.00 64 1007.9
20260902202153 97 201 3.0 12.0 0.00 0.00 0.00 63 1008.0
20260902201253 96 195 2.0 10.0 0.00 0.00 0.00 64 1008.1
20260902200353 96 185 3.0 11.0 0.00 0.00 0.00 64 1008.3
20260902195453 96 187 3.0 15.0 0.00 0.00 0.00 64 1008.3
20260902194553 96 206 1.0 9.0 0.00 0.00 0.00 65 1008.6
20260902193653 96 210 1.0 10.0 0.00 0.00 0.00 65 1008.6
20260902192753 95 227 1.0 11.0 0.00 0.00 0.00 66 1008.7
20260902191853 95 216 2.0 11.0 0.00 0.00 0.00 65 1008.8
20260902190053 95 233 1.0 7.0 0.00 0.00 0.00 67 1009.0
20260902185153 95 205 1.0 9.0 0.00 0.00 0.00 67 1009.0